TimeEDT,TemperatureF,Dew PointF,Humidity,Sea Level PressureIn,VisibilityMPH,Wind Direction,Wind SpeedMPH,Gust SpeedMPH,PrecipitationIn,Events,Conditions,WindDirDegrees,DateUTC
12:53 AM,51.1,46.0,83,29.98,10.0,East,11.5,25.3,N/A,,Overcast,80,2012-10-30 04:53:00
1:53 AM,51.1,46.0,83,29.96,10.0,ENE,13.8,24.2,N/A,,Overcast,70,2012-10-30 05:53:00
2:53 AM,51.8,46.4,82,29.92,10.0,NE,16.1,32.2,N/A,,Overcast,50,2012-10-30 06:53:00
3:07 AM,51.8,46.4,82,29.92,10.0,ENE,15.0,26.5,N/A,,Overcast,60,2012-10-30 07:07:00
3:53 AM,51.1,48.0,89,29.91,8.0,ENE,16.1,26.5,N/A,,Overcast,60,2012-10-30 07:53:00
4:53 AM,51.1,48.0,89,29.91,10.0,ENE,15.0,24.2,0.00,,Overcast,70,2012-10-30 08:53:00
5:03 AM,51.8,48.2,88,29.91,10.0,ENE,12.7,23.0,0.00,Rain,Light Rain,70,2012-10-30 09:03:00
5:53 AM,53.1,48.9,86,29.90,10.0,ENE,15.0,25.3,0.00,,Overcast,70,2012-10-30 09:53:00
6:53 AM,54.0,48.9,83,29.91,10.0,East,13.8,21.9,N/A,,Overcast,80,2012-10-30 10:53:00
7:53 AM,53.1,51.1,93,29.93,7.0,East,11.5,21.9,0.03,Rain,Light Rain,80,2012-10-30 11:53:00
8:24 AM,53.6,51.8,94,29.95,3.0,East,10.4,19.6,0.06,Rain,Rain,80,2012-10-30 12:24:00
8:32 AM,51.8,51.8,100,29.94,7.0,ENE,13.8,23.0,0.06,Rain,Light Rain,70,2012-10-30 12:32:00
8:53 AM,52.0,51.1,97,29.96,10.0,East,13.8,25.3,0.08,Rain,Light Rain,80,2012-10-30 12:53:00
9:00 AM,51.8,51.8,100,29.93,10.0,ENE,19.6,25.3,0.01,Rain,Light Rain,70,2012-10-30 13:00:00
9:28 AM,51.8,51.8,100,29.93,5.0,ENE,15.0,23.0,0.04,Rain,Light Rain,70,2012-10-30 13:28:00
9:35 AM,51.8,51.8,100,29.93,6.0,ENE,17.3,25.3,0.04,Rain,Light Rain,60,2012-10-30 13:35:00
9:53 AM,52.0,51.1,97,29.94,2.0,ENE,15.0,24.2,0.08,Rain,Light Rain,60,2012-10-30 13:53:00
10:01 AM,51.8,51.8,100,29.92,5.0,East,18.4,25.3,0.00,Rain,Light Rain,80,2012-10-30 14:01:00
10:45 AM,51.8,51.8,100,29.92,6.0,East,19.6,28.8,0.00,Rain,Light Rain,80,2012-10-30 14:45:00
10:53 AM,52.0,51.1,97,29.93,10.0,East,16.1,26.5,0.00,,Overcast,80,2012-10-30 14:53:00
11:53 AM,53.1,52.0,96,29.93,5.0,East,16.1,28.8,0.00,,Overcast,90,2012-10-30 15:53:00
12:53 PM,54.0,53.1,97,29.93,10.0,East,11.5,21.9,N/A,,Overcast,80,2012-10-30 16:53:00
1:11 PM,53.6,53.6,100,29.92,10.0,East,12.7,20.7,N/A,,Overcast,90,2012-10-30 17:11:00
1:53 PM,55.0,54.0,96,29.92,10.0,East,12.7,-,N/A,,Overcast,90,2012-10-30 17:53:00
2:53 PM,57.0,54.0,89,29.92,10.0,East,12.7,-,N/A,,Overcast,90,2012-10-30 18:53:00
3:53 PM,57.0,53.1,87,29.92,10.0,East,10.4,20.7,0.00,,Overcast,80,2012-10-30 19:53:00
4:53 PM,55.9,53.1,90,29.91,10.0,East,13.8,23.0,N/A,,Overcast,90,2012-10-30 20:53:00
5:53 PM,54.0,52.0,93,29.91,10.0,ENE,10.4,21.9,N/A,,Overcast,70,2012-10-30 21:53:00
6:27 PM,53.6,51.8,94,29.91,10.0,ENE,11.5,23.0,N/A,,Overcast,60,2012-10-30 22:27:00
6:39 PM,53.6,51.8,94,29.90,10.0,NE,16.1,27.6,N/A,,Overcast,50,2012-10-30 22:39:00
6:53 PM,53.1,51.1,93,29.90,10.0,ENE,17.3,25.3,N/A,,Overcast,60,2012-10-30 22:53:00
7:53 PM,53.1,51.1,93,29.93,9.0,East,9.2,18.4,0.01,Rain,Light Rain,80,2012-10-30 23:53:00
8:04 PM,53.6,51.8,94,29.92,4.0,ENE,11.5,16.1,0.00,Rain,Light Rain,70,2012-10-31 00:04:00
8:21 PM,51.8,51.8,100,29.93,1.8,ENE,9.2,-,0.15,Rain,Heavy Rain,70,2012-10-31 00:21:00
8:24 PM,51.8,51.8,100,29.94,1.5,ENE,9.2,-,0.24,Rain-Thunderstorm,Heavy Rain,70,2012-10-31 00:24:00
8:33 PM,51.8,51.8,100,29.93,2.0,ENE,8.1,-,0.31,Rain-Thunderstorm,Thunderstorms and Rain,60,2012-10-31 00:33:00
8:42 PM,51.8,51.8,100,29.92,5.0,ENE,11.5,-,0.35,Rain,Rain,70,2012-10-31 00:42:00
8:53 PM,52.0,51.1,97,29.89,2.5,NE,16.1,21.9,0.46,Rain,Rain,50,2012-10-31 00:53:00
9:00 PM,51.8,51.8,100,29.88,6.0,NE,16.1,24.2,0.02,Rain,Rain,50,2012-10-31 01:00:00
9:25 PM,51.8,51.8,100,29.87,10.0,ENE,17.3,24.2,0.06,Rain,Light Rain,60,2012-10-31 01:25:00
9:41 PM,51.8,51.8,100,29.87,6.0,ENE,17.3,28.8,0.08,Rain,Rain,60,2012-10-31 01:41:00
9:53 PM,52.0,51.1,97,29.89,6.0,ENE,12.7,23.0,0.10,Rain-Thunderstorm,Rain,70,2012-10-31 01:53:00
10:02 PM,51.8,51.8,100,29.88,6.0,ENE,17.3,25.3,0.02,Rain-Thunderstorm,Rain,70,2012-10-31 02:02:00
10:08 PM,51.8,51.8,100,29.88,4.0,ENE,17.3,25.3,0.05,Rain,Rain,60,2012-10-31 02:08:00
10:15 PM,51.8,51.8,100,29.88,4.0,ENE,15.0,23.0,0.07,Rain,Rain,70,2012-10-31 02:15:00
10:38 PM,51.8,51.8,100,29.87,9.0,ENE,12.7,24.2,0.14,Rain-Thunderstorm,Rain,70,2012-10-31 02:38:00
10:53 PM,52.0,51.1,97,29.88,7.0,ENE,6.9,-,0.19,Rain,Rain,70,2012-10-31 02:53:00
11:20 PM,51.8,51.8,100,29.85,6.0,ENE,11.5,21.9,0.08,Rain,Rain,60,2012-10-31 03:20:00
11:41 PM,51.8,51.8,100,29.83,2.5,ENE,13.8,23.0,0.22,Rain,Light Rain,60,2012-10-31 03:41:00
11:48 PM,51.8,51.8,100,29.84,9.0,ENE,15.0,21.9,0.22,Rain,Light Rain,70,2012-10-31 03:48:00
11:53 PM,52.0,51.1,97,29.84,9.0,ENE,12.7,21.9,0.24,Rain,Light Rain,70,2012-10-31 03:53:00